DateTimeUTC,F1_A11,F1_S11,BsB_S11,BsG_S11,BsR_S11,BbsB_S11,BbsG_S11,BbsR_S11,BaB_A11,BaG_A11,BaR_A11,Tu_S11,T_S11,Uu_S11,U_S11,P_S11,T1_A11
2021-08-01T18:00:00Z,00000200,20000000,,,,,,,-000.33,-000.03,-000.01,20.7,27.0,09.2,06.3,0676.8,31.2
2021-08-01T18:01:00Z,00000200,20000000,,,,,,,-000.21,-000.48,0000.15,20.7,27.0,09.2,06.3,0676.8,31.2
2021-08-01T18:02:00Z,00000200,20000000,,,,,,,0000.60,0000.33,0000.01,20.7,27.0,09.2,06.3,0676.8,31.2
2021-08-01T18:03:00Z,00000200,60000000,,,,,,,0000.73,0001.05,0000.57,20.7,27.1,09.3,06.3,0676.8,31.2
2021-08-01T18:04:00Z,00000200,40000000,0005.15,0003.96,0002.26,0000.66,0000.34,0000.59,0001.17,0000.48,0000.29,20.8,26.9,09.3,06.5,0677.7,31.2
2021-08-01T18:05:00Z,00000200,00000000,0004.85,0003.70,0002.00,0000.98,0000.54,-000.04,0000.90,0001.55,0001.11,20.8,26.9,09.2,06.4,0677.8,31.2
2021-08-01T18:06:00Z,00000200,00000000,0005.80,0003.67,0001.86,0000.62,0000.16,-000.05,0001.28,0000.69,0000.79,20.8,26.9,09.3,06.5,0677.8,31.2
2021-08-01T18:07:00Z,00000200,00000000,0004.68,0004.03,0002.14,0001.02,0000.38,0000.20,0001.46,0001.36,0001.03,20.8,26.9,09.3,06.4,0677.8,31.2
2021-08-01T18:08:00Z,00000200,00000000,0005.28,0003.90,0002.25,0000.82,0000.53,0000.41,0001.07,0001.27,0000.67,20.8,26.9,09.2,06.4,0677.8,31.2
2021-08-01T18:09:00Z,00000200,00000000,0005.43,0003.97,0002.31,0000.56,0000.74,0000.44,0001.21,0000.84,0000.94,20.8,26.8,09.3,06.5,0677.8,31.2
2021-08-01T18:10:00Z,00000200,00000000,0005.23,0003.52,0002.33,0001.12,0000.50,0000.42,0001.19,0000.91,0000.60,20.8,26.8,09.3,06.5,0677.7,31.2
2021-08-01T18:11:00Z,00000200,00000000,0005.14,0003.86,0002.16,0001.54,0000.08,0000.42,0001.08,0001.07,0001.20,20.8,26.8,09.3,06.5,0677.8,31.2
2021-08-01T18:12:00Z,00000200,00000000,0004.70,0003.94,0002.30,0001.19,0000.48,0000.28,0001.28,0001.37,0000.95,20.8,26.8,09.4,06.5,0677.7,31.2
2021-08-01T18:13:00Z,00000200,00000000,0005.09,0003.89,0002.17,0000.79,0000.56,0000.34,0001.50,0000.83,0000.64,20.8,26.8,09.3,06.5,0677.8,31.2
2021-08-01T18:14:00Z,00000200,00000000,0005.32,0003.56,0002.08,0001.12,0000.59,0000.24,0000.95,0001.35,0000.69,20.8,26.8,09.3,06.5,0677.8,31.2
2021-08-01T18:15:00Z,00000200,00000000,0004.82,0003.66,0002.45,0000.70,0000.54,0000.48,0001.23,0001.33,0000.92,20.8,26.8,09.3,06.5,0677.7,31.2
2021-08-01T18:16:00Z,00000200,00000000,0004.90,0003.54,0002.41,0000.65,0000.44,0000.43,0001.13,0000.91,0000.88,20.8,26.8,09.3,06.5,0677.7,31.2
2021-08-01T18:17:00Z,00000200,00000000,0005.47,0004.12,0002.01,0001.30,0000.23,-000.01,0001.07,0001.04,0000.83,20.8,26.9,09.3,06.5,0677.7,31.2
2021-08-01T18:18:00Z,00000200,00000000,0004.81,0003.52,0002.35,0001.15,0000.45,0000.84,0001.31,0001.18,0000.60,20.8,26.8,09.2,06.4,0677.7,31.2
2021-08-01T18:19:00Z,00000200,00000000,0005.46,0003.51,0002.07,0000.95,0000.36,0000.31,0001.13,0000.94,0000.94,20.9,26.8,09.3,06.5,0677.7,31.2
2021-08-01T18:20:00Z,00000200,00000000,0005.02,0003.99,0002.06,0001.59,0000.36,0000.34,0001.27,0001.06,0000.87,20.9,26.9,09.3,06.5,0677.7,31.2
2021-08-01T18:21:00Z,00000200,00000000,0004.73,0003.98,0002.55,0000.92,0000.38,0000.35,0001.03,0001.23,0000.69,20.9,26.9,09.4,06.6,0677.7,31.2
2021-08-01T18:22:00Z,00000200,00000000,0005.68,0003.84,0002.07,0001.13,0000.49,0000.01,0001.27,0001.12,0001.03,20.9,26.9,09.3,06.5,0677.6,31.2
2021-08-01T18:23:00Z,00000200,00000000,0004.63,0004.09,0002.14,0000.64,0000.51,0000.15,0001.40,0000.98,0000.88,20.9,26.9,09.3,06.5,0677.6,31.2
2021-08-01T18:24:00Z,00000200,00000000,0005.10,0003.86,0002.36,0000.67,0000.33,0000.33,0001.12,0001.03,0000.74,20.9,26.9,09.4,06.6,0677.6,31.2
2021-08-01T18:25:00Z,00000200,00000000,0005.15,0004.03,0002.71,0001.31,0000.59,0000.24,0001.35,0001.23,0001.11,20.9,26.9,09.4,06.5,0677.6,31.2
2021-08-01T18:26:00Z,00000200,00000000,0005.21,0004.06,0002.52,0000.94,0000.38,0000.23,0001.36,0001.43,0000.84,20.9,26.9,09.3,06.5,0677.6,31.2
2021-08-01T18:27:00Z,00000200,00000000,0005.75,0004.04,0002.38,0000.53,0000.35,0000.30,0001.43,0001.33,0001.05,20.9,26.9,09.4,06.5,0677.6,31.2
2021-08-01T18:28:00Z,00000200,00000000,0004.95,0004.46,0002.51,0000.83,0000.54,0000.46,0001.25,0000.84,0000.72,20.9,26.9,09.4,06.5,0677.6,31.2
2021-08-01T18:29:00Z,00000200,00000000,0006.08,0004.16,0002.45,0000.96,0000.49,0000.50,0001.09,0001.26,0001.16,20.9,26.9,09.4,06.6,0677.6,31.2
2021-08-01T18:30:00Z,00000200,00000000,0006.41,0003.94,0002.46,0000.82,0000.26,0000.18,0001.27,0001.10,0000.65,20.9,26.9,09.4,06.5,0677.7,31.2
2021-08-01T18:31:00Z,00000200,00000000,0004.58,0004.50,0002.59,0000.50,0000.57,0000.15,0001.23,0001.28,0001.11,20.9,26.9,09.3,06.5,0677.7,31.2
2021-08-01T18:32:00Z,00000200,00000000,0005.90,0004.43,0002.48,0000.61,0000.64,0000.16,0001.66,0001.18,0001.13,20.9,26.9,09.3,06.5,0677.7,31.2
2021-08-01T18:33:00Z,00000200,00000000,0005.74,0004.03,0001.87,0001.20,0000.26,-000.06,0001.25,0001.29,0000.42,20.9,26.9,09.3,06.5,0677.7,31.2
2021-08-01T18:34:00Z,00000200,00000000,0004.83,0003.85,0002.04,0000.23,0000.40,0000.29,0000.99,0000.97,0000.97,20.9,26.9,09.2,06.4,0677.7,31.2
2021-08-01T18:35:00Z,00000200,00000000,0006.23,0003.57,0002.26,0001.00,0000.44,0000.15,0001.29,0000.95,0000.72,20.9,26.9,09.1,06.4,0677.7,31.2
2021-08-01T18:36:00Z,00000200,00000000,0005.18,0003.59,0002.12,0000.57,0000.38,0000.36,0001.28,0001.11,0001.03,20.9,26.9,09.1,06.4,0677.6,31.2
2021-08-01T18:37:00Z,00000200,00000000,0005.03,0003.31,0002.22,0000.63,0000.44,0000.63,0000.78,0001.06,0000.48,20.9,26.9,09.2,06.4,0677.6,31.2
2021-08-01T18:38:00Z,00000200,00000000,0005.63,0003.76,0002.12,0000.40,0000.42,0000.31,0001.45,0001.27,0001.06,20.9,26.9,09.1,06.4,0677.7,31.2
2021-08-01T18:39:00Z,00000200,00000000,0004.64,0003.68,0002.05,0001.55,0000.42,0000.30,0001.04,0001.18,0000.68,20.9,26.9,09.1,06.3,0677.6,31.2
2021-08-01T18:40:00Z,00000200,00000000,0005.81,0003.41,0002.03,0000.51,0000.43,0000.40,0001.46,0000.88,0000.82,20.9,26.9,09.1,06.4,0677.6,31.2
2021-08-01T18:41:00Z,00000200,00000000,0005.23,0004.20,0002.51,0001.27,0000.34,0000.70,0001.15,0001.40,0000.87,20.9,26.9,09.3,06.5,0677.6,31.2
2021-08-01T18:42:00Z,00000200,00000000,0005.81,0003.76,0002.07,0000.90,0000.29,0000.18,0001.25,0000.85,0000.79,20.9,26.9,09.2,06.4,0677.6,31.2
2021-08-01T18:43:00Z,00000200,00000000,0005.61,0004.28,0002.64,0000.94,0000.67,0000.45,0001.01,0001.11,0001.09,20.9,26.9,09.1,06.3,0677.6,31.2
2021-08-01T18:44:00Z,00000200,00000000,0004.85,0004.27,0002.43,0000.83,0000.55,0000.22,0001.52,0000.95,0001.10,20.9,26.9,09.3,06.5,0677.6,31.2
2021-08-01T18:45:00Z,00000200,00000000,0005.49,0003.98,0002.94,0000.97,0000.69,0000.48,0001.50,0001.92,0000.70,20.9,26.9,09.3,06.5,0677.6,31.2
2021-08-01T18:46:00Z,00000200,00000000,0005.16,0004.13,0002.25,0001.39,0000.11,0000.38,0001.17,0000.76,0001.39,20.9,26.9,09.2,06.4,0677.6,31.2
2021-08-01T18:47:00Z,00000200,00000000,0005.70,0004.16,0002.08,0001.18,0000.38,0000.04,0001.66,0001.40,0000.82,20.9,26.9,09.2,06.4,0677.6,31.2
2021-08-01T18:48:00Z,00000200,00000000,0005.33,0003.88,0002.44,0000.48,0000.12,0000.69,0000.94,0001.17,0000.69,20.9,26.9,09.2,06.4,0677.6,31.2
2021-08-01T18:49:00Z,00000200,00000000,0005.03,0004.08,0002.42,0001.37,0000.34,0000.18,0001.12,0000.75,0000.56,20.9,26.9,09.0,06.3,0677.6,31.2
2021-08-01T18:50:00Z,00000200,00000000,0005.17,0003.44,0001.78,0000.97,0000.78,0000.17,0000.83,0001.18,0000.91,20.9,26.9,09.0,06.3,0677.6,31.2
2021-08-01T18:51:00Z,00000200,00000000,0004.28,0002.79,0001.61,0000.60,0000.27,0000.18,0001.15,0000.92,0000.46,20.9,26.9,09.1,06.3,0677.6,31.2
2021-08-01T18:52:00Z,00000200,00000000,0004.17,0002.51,0001.24,0000.24,0000.04,-000.01,0000.68,0000.40,0000.63,20.9,26.9,09.1,06.3,0677.6,31.2
2021-08-01T18:53:00Z,00000200,00000000,0003.57,0003.03,0001.39,0000.80,0000.20,0000.46,0001.29,0001.05,0000.92,20.9,26.9,09.2,06.4,0677.6,31.2
2021-08-01T18:54:00Z,00000200,00000000,0003.83,0002.54,0001.37,0001.09,0000.56,0000.09,0001.00,0000.88,0000.82,20.9,26.9,09.1,06.3,0677.6,31.2
2021-08-01T18:55:00Z,00000200,00000000,0004.59,0002.95,0001.23,0000.48,-000.03,0000.10,0000.60,0000.94,0000.79,20.9,26.9,09.2,06.4,0677.6,31.2
2021-08-01T18:56:00Z,00000200,00000000,0004.37,0003.07,0001.60,0001.06,0000.02,0000.06,0000.85,0000.67,0000.17,20.9,26.9,09.2,06.4,0677.6,31.2
2021-08-01T18:57:00Z,00000200,40000000,,,,,,,0000.34,0000.56,0000.02,20.9,26.9,09.0,06.3,0677.6,31.2
2021-08-01T18:58:00Z,00000200,60000000,,,,,,,-000.28,-000.24,0000.14,20.7,27.0,09.3,06.3,0676.6,31.2
2021-08-01T18:59:00Z,00000200,20000000,,,,,,,0000.47,0000.28,-000.04,20.7,27.1,09.3,06.3,0676.6,31.2
